SCP
0 0 0 0 0 0 -0 -0 0 0 0 0 0 0 0 0 0 0 0 0 0 1 1 0 0 0 1 1 1 1 0 0 0 0 0 0 0 0 0 0 0 0 0 0 0 0 0 0 0
0 0 0 0 0 0 -0 -0 -0 0 0 0 0 0 0 0 0 0 0 0 1 1 1 0 0 0 0 0 0 0 0 0 0 0 0 0 0 0 0 0 0 0 0 0 0 0 0 0 0
0 0 0 0 0 0 -0 -0 -0 0 0 0 0 0 0 0 0 0 0 0 1 1 0 0 0 0 0 0 0 0 0 0 0 0 0 0 0 0 0 0 0 0 0 0 0 0 0 0 0
0 0 0 0 0 0 -0 -0 -0 -0 -0 0 0 0 0 0 0 0 0 1 1 0 0 0 0 0 0 0 0 0 0 0 0 0 0 0 0 0 0 0 0 0 0 0 0 0 0 0 0
0 0 0 0 0 0 0 0 0 0 0 0 0 0 0 0 0 0 0 0 0 0 0 0 0 0 0 0 0 0 0 0 0 0 0 0 0 0 0 0 0 0 0 0 0 0 0 0 0
0 0 0 0 0 0 0 0 0 0 0 0 0 0 0 0 0 0 0 0 0 0 0 0 0 0 0 0 0 0 0 0 0 0 0 0 0 0 0 0 0 0 0 0 0 0 0 0 0
0 0 0 0 0 0 0 0 0 0 0 0 0 0 0 0 0 0 0 0 0 0 0 0 0 0 0 0 0 0 0 0 0 0 0 0 0 0 0 0 0 0 0 0 0 0 0 0 0
0 0 0 0 0 0 0 0 0 0 0 0 0 0 0 0 0 0 0 0 0 0 0 0 0 0 0 0 0 0 0 0 0 0 0 0 0 0 0 0 0 0 0 0 0 0 0 0 0
0 0 0 0 0 0 0 0 0 0 0 0 0 0 0 0 0 0 0 0 0 0 0 0 0 0 0 0 0 0 0 0 0 0 0 0 0 0 0 0 0 0 0 0 0 0 0 0 0
0 0 0 0 0 0 0 0 0 0 0 0 0 0 0 1 0 0 0 0 0 0 0 0 0 0 0 0 0 0 0 0 0 0 0 0 0 0 0 0 0 0 0 0 0 0 0 0 0
0 0 0 0 0 0 0 0 0 0 0 0 0 0 1 1 1 0 0 0 0 0 0 0 0 0 0 0 0 0 0 0 0 0 0 0 0 0 0 0 0 0 0 0 0 0 0 0 0
0 0 0 0 0 0 0 0 0 0 0 0 0 1 1 1 1 0 0 0 0 0 0 0 0 0 0 0 0 0 0 0 0 0 0 0 0 0 0 0 0 0 0 0 0 0 0 0 0
0 0 0 0 0 0 0 0 0 0 0 0 0 1 1 1 1 0 0 0 0 0 0 0 0 0 0 0 0 0 0 0 0 0 0 0 0 0 0 0 0 0 0 0 0 0 0 0 0
0 0 0 0 0 0 0 0 0 0 0 0 1 1 1 1 1 0 0 0 0 0 0 0 0 0 0 0 0 0 0 0 0 0 0 0 0 0 0 0 0 0 0 0 0 0 0 0 0
0 0 0 0 0 0 0 0 0 0 0 0 1 1 1 1 1 0 0 0 0 0 0 0 0 0 0 0 0 0 0 0 0 0 0 0 0 0 0 0 0 0 0 0 0 0 0 0 0
0 0 0 0 0 0 0 0 0 0 0 0 0 1 1 1 1 0 0 0 0 0 0 0 0 0 0 0 0 0 0 0 0 0 0 0 0 0 0 0 0 0 0 0 0 0 0 0 0
0 0 0 0 0 0 0 0 0 0 0 0 0 0 1 1 1 0 0 0 0 0 0 0 0 0 0 0 0 0 0 0 0 0 0 0 0 0 0 0 0 0 0 0 0 0 0 0 0
0 0 0 0 0 0 0 0 0 0 0 0 0 0 1 1 1 0 0 0 1 1 1 1 1 1 1 1 1 0 0 0 0 0 0 0 0 0 0 0 0 0 0 0 0 0 0 0 0
0 0 0 0 0 0 0 0 0 0 0 0 0 0 1 1 1 0 0 0 1 1 1 1 1 1 1 1 1 1 1 0 0 0 0 0 0 0 0 0 0 0 0 0 0 0 0 0 0
0 0 0 0 0 0 0 0 0 0 1 1 1 1 1 1 1 1 0 0 1 1 1 1 1 1 1 1 1 1 1 0 0 0 0 0 0 0 0 0 0 0 0 0 0 0 0 0 0
0 0 0 0 0 0 0 0 0 1 1 1 1 1 1 1 1 1 0 0 1 1 1 1 1 1 1 1 1 1 1 0 0 0 0 0 0 0 0 0 0 0 0 0 0 0 0 0 0
0 0 0 0 0 0 0 0 0 0 1 1 1 1 1 1 1 1 0 0 1 1 1 1 1 1 1 1 1 1 1 1 0 0 0 0 0 0 0 0 0 0 0 0 0 0 0 0 0
0 0 0 0 0 0 0 0 0 0 1 1 1 1 1 0 0 0 0 0 0 0 1 1 1 1 1 1 1 1 1 0 0 0 0 0 0 0 0 0 0 0 0 0 0 0 0 0 0
0 0 0 0 0 0 0 0 0 0 0 0 0 0 0 0 0 0 0 0 0 0 0 0 0 1 1 1 1 1 0 0 0 0 0 0 0 0 0 0 0 0 0 0 0 0 0 0 0
0 0 0 0 0 0 0 0 0 0 0 0 0 0 0 0 0 0 0 0 0 0 0 0 0 0 0 0 0 0 0 0 0 0 0 0 0 0 0 0 0 0 0 0 0 0 0 0 0
0 0 0 0 0 0 0 0 0 0 0 0 0 0 0 0 0 0 0 0 0 0 0 0 0 0 0 0 0 0 0 0 0 0 0 0 0 0 0 0 0 0 0 0 0 0 0 0 0
0 0 0 0 0 0 0 0 0 0 0 0 0 0 0 0 0 0 0 0 0 0 0 0 0 0 0 0 0 0 0 0 0 0 0 0 0 0 0 0 0 0 0 0 0 0 0 0 0
0 0 0 0 0 0 0 0 0 0 0 0 0 0 0 0 0 0 0 0 0 0 0 0 0 0 0 0 0 0 0 0 0 0 0 0 0 0 0 0 0 0 0 0 0 0 0 0 0
0 0 0 0 0 0 0 0 0 0 0 0 0 0 0 0 0 0 0 0 0 0 0 0 0 0 0 0 0 0 0 0 0 0 0 0 0 0 0 0 0 0 0 0 0 0 0 0 0
0 0 0 0 0 0 0 0 0 0 0 0 0 0 0 0 0 0 0 0 0 0 0 0 0 0 0 0 0 0 0 0 0 0 0 0 0 0 0 0 0 0 0 0 0 0 0 0 0
Wind_Speed
7 1 3 3 6 5 3 4 2 3 3 1 1 3 4 4 5 4 2 11 16 16 14 16 17 17 17 17 18 18 18 18 18 18 17 17 16 16 15 15 14 14 14 15 15 14 14 13 13
3 0 4 5 5 1 5 3 1 3 3 2 1 1 1 1 2 5 5 9 16 16 12 14 18 17 18 18 18 18 18 18 18 17 17 16 15 15 14 14 14 13 13 13 13 13 12 12 11
2 2 5 5 3 5 4 2 1 5 5 2 1 1 0 2 4 6 6 14 15 14 11 14 19 18 18 19 19 18 18 18 17 16 16 15 14 13 13 13 13 12 12 12 12 12 11 10 10
2 5 6 4 5 7 5 3 3 6 6 3 1 1 1 1 5 6 13 15 15 13 11 14 19 18 17 18 18 18 18 17 16 16 15 14 13 12 12 12 12 11 11 11 11 10 9 9 8
4 5 3 1 7 6 4 3 2 3 4 3 1 1 1 4 7 13 15 16 15 12 9 12 17 17 17 17 17 17 17 16 15 14 14 13 12 11 11 11 10 10 9 9 9 8 7 7 6
5 5 4 5 8 6 3 3 2 2 3 3 2 3 1 3 9 13 13 12 12 13 10 10 17 18 17 17 16 15 15 14 14 13 12 12 11 10 9 9 9 8 7 7 7 6 6 5 4
5 5 6 7 6 6 4 3 2 2 4 4 3 4 0 3 6 10 10 10 9 10 10 8 10 13 16 16 15 14 14 13 12 12 11 11 11 10 9 8 7 7 6 5 5 5 4 3 3
4 5 5 5 6 7 2 1 1 2 5 2 5 6 5 6 8 9 9 9 9 8 8 8 7 7 7 9 15 15 14 13 12 12 12 12 11 10 9 7 6 6 5 4 4 3 2 2 1
4 4 6 7 7 5 1 1 2 2 2 1 2 5 6 15 13 12 11 9 9 10 7 7 7 7 6 7 10 12 13 13 12 10 12 9 4 4 5 6 7 6 5 4 3 2 2 1 1
4 4 8 6 4 3 2 2 3 3 4 2 0 3 13 18 15 15 15 15 14 13 11 7 8 8 7 7 6 5 5 6 5 4 5 4 3 3 4 4 7 6 5 4 3 2 1 1 1
5 7 5 6 6 4 4 4 3 3 6 7 6 10 18 18 15 14 14 14 14 13 12 10 9 9 8 5 5 4 3 4 4 5 5 4 3 2 2 1 2 2 2 1 2 2 1 1 1
3 6 5 5 4 3 4 3 3 6 11 8 8 16 20 19 18 16 15 13 10 11 12 11 10 9 8 5 5 5 4 4 4 4 5 4 3 3 2 1 1 1 0 0 0 0 1 1 1
5 6 6 7 7 6 5 6 5 9 11 6 7 16 20 19 15 12 11 11 10 12 11 11 11 10 8 6 6 6 6 6 5 5 5 5 4 4 3 2 2 2 1 1 1 0 0 0 0
5 6 7 7 7 5 6 6 4 10 5 4 10 14 16 15 14 11 11 11 11 11 11 10 11 10 8 7 6 6 6 5 5 5 6 6 4 4 3 3 2 2 2 2 1 1 1 1 1
3 4 6 6 6 5 4 4 7 9 4 6 9 11 12 11 12 13 14 13 13 12 11 11 11 10 10 8 7 5 5 5 5 5 6 6 6 5 4 3 3 2 2 2 2 2 2 2 2
3 1 3 6 3 3 7 5 7 4 6 7 8 10 11 10 11 11 11 11 11 11 11 11 11 11 10 8 7 5 5 5 4 4 4 6 6 6 4 4 3 3 2 2 2 2 2 2 3
3 1 3 6 2 1 4 4 5 2 7 8 8 10 10 9 8 9 10 10 11 12 11 11 10 11 10 8 6 5 4 4 3 3 3 4 5 6 4 3 3 3 3 2 3 2 2 2 3
3 2 2 4 3 1 1 4 6 2 5 6 7 8 9 9 9 6 6 7 8 9 9 10 10 9 8 6 5 4 4 3 3 3 3 4 3 5 4 3 3 4 3 3 3 3 3 2 2
2 2 4 6 4 1 1 2 6 4 1 3 4 5 6 6 4 3 3 5 5 5 7 8 9 8 7 6 6 5 3 3 3 3 3 4 4 4 5 4 3 3 3 4 5 3 4 3 1
3 3 5 6 2 1 1 4 6 7 4 2 4 4 3 2 2 3 3 3 2 2 2 4 6 7 7 6 4 4 4 4 3 3 4 4 4 3 3 4 3 3 3 4 4 3 3 2 1
3 4 4 5 6 4 3 5 7 8 9 10 9 7 6 5 4 4 4 3 4 3 2 2 4 5 6 7 6 6 4 4 3 4 3 4 5 5 4 5 4 4 4 3 3 3 4 3 2
5 6 6 3 2 4 2 2 4 5 9 11 11 11 10 9 8 7 6 6 6 4 3 3 3 4 5 6 7 8 6 5 4 4 4 5 6 6 6 6 6 5 4 4 3 3 2 4 3
8 4 3 2 3 1 2 5 1 2 6 9 10 11 11 10 10 10 9 9 8 7 5 5 5 5 5 5 6 7 6 5 6 7 7 6 6 7 7 7 7 7 6 6 6 5 5 3 3
4 2 3 4 4 0 2 5 1 2 4 6 9 10 11 11 11 11 11 11 10 10 9 8 8 7 6 6 6 7 9 9 9 8 7 6 5 6 7 8 7 7 7 7 6 7 8 6 6
4 5 3 3 3 2 1 6 3 5 7 8 9 10 11 11 11 12 13 12 12 12 11 10 10 10 9 10 10 9 9 9 9 8 7 7 6 5 7 7 7 7 7 7 7 8 8 7 7
5 8 7 5 4 0 3 5 4 7 9 10 10 10 11 12 12 13 12 12 11 12 12 12 12 11 11 11 11 10 10 8 8 9 8 8 6 6 7 8 9 9 8 9 8 7 7 7 7
5 4 5 6 3 4 3 5 5 7 9 9 9 10 11 11 12 12 12 12 13 13 14 13 13 13 13 12 13 13 12 11 11 11 10 8 7 7 9 10 10 10 9 9 8 7 7 6 6
4 6 5 5 5 3 3 3 2 7 8 7 7 8 9 9 11 12 12 12 12 13 13 13 14 14 13 12 12 12 12 12 11 11 11 10 10 9 10 10 10 10 9 8 8 7 6 7 5
4 5 5 5 4 6 4 1 2 7 10 9 7 7 7 8 9 10 10 11 12 12 12 12 13 14 13 13 13 13 12 12 12 11 11 10 10 9 10 9 9 9 9 7 7 7 6 6 5
4 3 4 5 3 4 5 3 3 8 10 10 9 8 8 9 9 9 10 10 11 12 12 12 12 13 12 11 12 13 12 11 12 11 10 10 10 9 9 9 9 9 8 7 7 7 6 5 5
Wind_Direction
308 325 116 68 46 41 294 273 266 333 325 280 168 169 169 172 181 209 103 134 133 141 149 150 150 148 142 136 131 128 127 126 126 126 127 127 127 126 125 123 120 118 116 115 113 112 112 112 111
299 97 68 59 75 356 280 263 307 325 303 326 18 65 85 235 93 118 129 138 137 141 145 149 151 148 143 138 135 133 132 131 130 130 130 130 130 128 126 124 122 119 117 116 115 115 116 115 114
303 59 84 77 128 199 240 249 284 307 310 324 8 40 124 223 149 153 152 140 136 140 143 153 152 149 145 141 139 137 136 136 135 135 134 133 132 130 128 127 125 122 120 119 118 118 119 118 117
70 53 60 95 228 228 220 260 311 325 325 314 134 48 39 31 151 150 140 141 137 142 146 154 153 151 147 144 143 142 141 140 139 139 138 137 136 134 132 131 130 129 127 125 123 123 122 121 119
60 85 93 197 243 249 234 251 253 290 292 287 172 167 1 19 109 133 143 146 144 143 146 153 153 152 151 149 147 146 145 143 142 141 141 140 138 136 136 137 137 136 134 131 128 126 123 120 119
59 83 138 221 245 258 247 233 262 272 273 288 169 150 348 90 131 143 146 144 144 146 146 152 157 156 156 154 151 149 148 147 145 145 144 143 142 141 143 145 146 146 144 140 134 130 127 122 118
118 131 188 210 239 259 247 205 213 280 290 261 164 137 96 138 149 140 134 130 135 144 146 150 158 160 160 158 155 153 151 150 148 147 148 149 150 152 155 156 158 158 157 153 146 141 136 125 115
130 130 195 209 221 251 216 193 227 251 275 259 143 153 199 170 142 126 119 122 135 144 150 150 152 151 154 157 160 158 156 154 154 156 158 161 163 166 170 169 174 176 179 179 170 158 148 134 132
88 103 212 210 204 232 204 337 290 265 266 269 179 178 175 139 139 132 133 138 150 158 158 154 151 148 146 150 165 163 163 163 163 165 169 165 160 166 174 183 193 197 201 205 202 193 184 166 302
107 180 227 221 210 237 296 275 287 313 300 271 93 108 134 142 152 155 160 164 168 171 172 164 160 155 151 161 153 148 154 158 156 155 162 150 148 166 178 201 210 217 221 232 238 238 245 72 346
169 202 230 243 244 256 275 269 240 242 268 235 203 160 150 155 163 170 174 176 177 173 173 173 168 163 161 154 146 145 144 150 152 158 156 147 145 153 167 152 236 252 251 279 356 14 34 27 275
194 243 235 254 243 237 240 251 250 224 242 240 195 163 160 167 175 179 179 179 173 174 178 175 173 170 167 155 156 156 158 166 169 168 160 154 158 170 179 184 200 201 180 185 44 13 347 323 271
221 258 252 247 261 248 244 242 246 257 262 251 166 162 169 172 177 179 178 174 173 180 181 178 177 176 172 162 164 171 175 178 178 174 174 169 173 183 191 201 202 208 198 196 201 215 312 354 339
237 238 261 267 254 238 224 249 219 260 250 163 154 164 173 173 172 171 175 178 180 183 182 177 181 179 174 174 174 175 178 176 177 182 182 179 179 181 187 198 205 211 203 194 182 181 149 68 71
275 271 290 260 234 233 181 259 228 241 178 161 159 161 164 170 176 182 183 183 182 183 181 181 184 180 180 179 179 177 179 176 184 185 182 183 184 185 183 189 202 204 184 168 143 131 107 95 82
331 305 293 284 237 210 149 234 255 209 163 170 164 162 166 175 183 187 184 184 181 180 181 185 189 186 187 184 179 175 177 179 184 179 179 185 186 182 178 184 191 175 155 149 144 132 106 90 86
4 304 263 298 321 128 161 235 283 193 173 177 175 171 173 176 183 189 187 187 186 183 182 183 187 185 187 184 174 170 161 166 165 159 168 181 185 180 175 179 170 155 143 144 151 119 117 117 108
256 264 298 295 310 30 185 257 300 281 195 189 181 176 176 180 190 183 180 182 190 185 182 184 186 183 175 167 157 152 141 138 131 139 158 159 170 170 159 148 148 148 138 135 130 113 83 92 107
231 282 294 276 278 299 288 329 335 343 187 185 171 171 180 188 179 138 156 172 177 175 181 185 184 179 169 169 170 163 159 133 124 119 118 128 139 149 146 142 137 134 140 143 133 116 101 76 69
228 278 292 294 313 247 33 33 17 28 45 95 139 148 166 144 93 85 83 90 110 147 173 179 179 176 174 173 161 135 124 115 103 89 81 86 97 103 123 126 121 117 117 117 123 127 118 87 41
230 221 246 273 333 2 83 31 33 38 49 54 53 53 54 60 62 53 53 58 74 75 91 160 168 166 159 148 129 117 108 97 98 97 86 67 82 83 84 93 102 101 106 115 109 121 137 136 84
253 232 223 251 353 310 62 80 21 50 54 53 50 48 46 45 47 48 41 37 43 50 61 78 109 131 140 144 151 150 151 144 125 105 90 72 66 75 79 86 89 87 84 90 87 80 103 124 125
220 228 214 229 185 299 24 115 342 67 65 57 52 50 46 46 46 46 42 42 39 35 49 73 89 92 100 121 141 140 128 116 110 105 98 83 66 64 70 78 84 85 81 78 73 70 68 77 101
203 69 53 51 87 34 288 124 72 42 80 75 59 51 46 45 46 45 43 43 39 35 41 52 67 68 76 89 96 107 115 118 117 109 103 89 76 65 64 72 75 77 79 76 76 75 74 73 79
135 104 40 21 42 240 11 93 84 69 79 85 75 61 53 49 48 45 43 42 39 37 40 47 57 59 62 71 73 84 96 103 106 107 99 94 83 73 64 69 72 72 74 74 73 74 73 73 78
171 146 158 176 186 228 37 87 89 86 85 80 74 66 58 54 54 52 47 45 45 43 44 48 55 57 59 67 71 72 78 82 86 89 92 87 83 77 75 72 69 68 69 72 71 72 70 71 74
140 173 165 129 125 92 88 106 114 105 88 78 70 63 57 53 54 54 51 49 49 48 47 50 58 60 59 64 72 72 72 78 83 82 81 80 79 79 74 74 72 68 66 68 70 71 69 72 71
118 135 97 111 131 120 118 128 144 145 123 101 83 73 64 59 57 55 53 54 53 53 52 54 59 64 64 65 71 77 75 76 79 81 80 79 77 77 76 72 72 69 66 67 70 69 65 71 64
46 63 87 96 126 137 142 147 337 154 138 126 106 89 79 69 63 59 57 57 60 60 58 59 62 65 65 66 69 73 73 74 74 75 77 79 76 74 77 77 76 72 67 64 68 66 60 63 55
81 84 117 129 121 108 121 105 41 119 122 121 114 100 89 83 76 70 65 62 60 60 59 59 60 65 66 68 72 72 71 73 76 75 74 78 78 76 78 78 76 73 68 61 61 58 51 50 45